Temperature
17 17 17 17 17 17 17 17 17 17 17 17 17 17 17 17 17 17 17 17 17 17 17 17 17 17 17 18 17 18 18 18 18 18 18 18 18 18 18 18 17 17 18
17 17 17 17 17 17 17 17 17 17 17 17 17 17 17 17 17 17 17 17 17 17 17 17 17 17 17 17 17 17 17 18 18 18 18 18 18 18 18 18 17 17 18
17 17 17 17 17 17 17 17 17 17 17 17 17 17 17 17 17 17 17 17 17 17 17 17 17 17 17 17 17 17 17 17 17 17 17 17 17 18 18 17 17 17 17
17 17 17 17 17 17 17 17 17 17 17 17 17 17 17 17 17 17 17 17 17 17 17 17 17 17 17 17 17 17 17 17 17 17 17 17 17 17 17 17 17 17 17
17 17 17 17 17 17 17 17 17 17 17 17 17 16 16 16 17 16 17 17 17 17 17 17 17 17 17 17 17 17 17 17 17 17 17 17 17 17 17 17 17 17 17
17 17 17 17 17 17 17 17 17 17 17 17 16 16 16 16 16 16 16 17 17 17 17 17 17 17 17 17 17 17 17 17 17 16 16 16 17 17 17 17 17 17 17
17 17 17 17 17 17 17 17 17 17 16 16 16 16 16 16 16 16 16 16 16 17 17 17 17 17 17 17 17 17 17 17 16 16 16 16 17 17 17 17 17 17 17
17 17 17 17 17 17 17 16 16 16 16 16 16 16 16 16 16 16 16 16 16 16 16 16 16 16 17 17 17 17 17 16 16 16 16 16 17 17 17 17 17 17 17
17 17 16 16 16 17 17 17 16 16 16 16 16 16 16 16 16 16 16 16 16 16 16 16 16 16 16 16 16 16 16 16 16 16 16 16 16 17 17 17 16 16 17
17 17 17 16 16 16 16 16 16 16 16 16 16 16 16 16 16 16 16 16 16 16 16 16 16 16 16 16 16 16 16 16 16 16 16 16 16 16 16 16 16 16 16
17 17 17 16 16 16 16 16 16 16 16 16 16 16 16 16 15 15 16 16 16 16 16 16 16 16 16 16 16 16 16 16 16 15 16 16 16 16 16 16 16 16 16
17 17 17 16 16 16 16 16 16 16 16 16 16 16 16 16 15 15 16 16 16 16 16 16 16 16 15 15 16 16 15 16 15 15 15 16 16 16 16 16 16 16 16
18 17 17 17 16 16 16 16 16 16 15 15 15 15 16 15 15 15 15 15 15 15 15 15 15 15 15 15 15 15 15 15 15 15 15 15 15 16 16 15 15 16 16
17 17 17 17 16 16 16 16 15 15 15 15 15 15 15 15 15 15 15 15 15 15 15 15 15 15 15 15 15 15 15 15 15 15 15 15 15 15 15 15 15 15 15
17 17 17 16 16 16 16 16 15 15 15 15 15 15 15 15 15 15 15 15 15 15 15 15 15 15 15 15 15 15 15 15 15 15 15 15 15 15 15 15 15 15 15
17 17 17 16 16 16 16 16 16 15 15 15 15 15 15 15 15 15 15 15 15 15 15 15 15 15 15 15 15 15 15 15 15 15 14 15 15 15 15 15 15 15 15
18 17 17 16 16 16 16 16 16 15 15 15 15 15 15 15 15 15 15 14 14 14 14 14 14 14 14 14 14 14 14 14 14 14 14 14 14 15 15 15 15 15 15
17 17 17 16 16 16 16 16 15 15 15 15 15 15 15 14 14 14 14 14 14 14 14 14 14 14 14 14 14 14 14 14 14 14 14 14 14 14 14 15 15 15 15
17 17 16 16 16 16 15 15 15 15 15 15 15 14 14 14 14 14 14 14 14 14 14 14 14 14 14 14 14 14 14 14 14 14 14 14 14 14 14 14 14 14 14
17 17 16 16 16 15 15 15 15 15 15 15 14 14 14 14 14 14 14 14 14 14 14 14 14 14 14 14 14 14 14 14 14 14 14 14 14 14 14 14 14 14 14
16 16 16 16 15 15 15 15 15 15 15 14 14 14 14 14 14 14 14 13 13 13 13 13 13 13 13 14 14 14 14 14 14 14 14 14 14 14 14 14 13 13 13
16 16 16 16 15 15 15 15 15 14 14 14 14 14 14 14 14 14 13 13 13 13 13 13 13 13 13 13 13 14 14 14 13 13 13 13 13 13 13 13 13 13 13
16 16 16 16 15 15 15 15 14 14 14 14 14 14 14 14 14 14 13 13 13 13 13 13 13 13 13 13 13 13 14 14 13 13 13 13 13 13 13 13 13 13 13
15 15 15 15 15 15 15 14 14 14 14 14 14 14 14 13 13 13 13 13 13 13 13 13 13 13 13 13 13 13 13 13 14 13 13 13 13 13 13 13 13 13 13
15 15 15 15 15 15 14 14 14 14 14 14 13 13 13 13 13 13 13 13 13 13 13 13 13 12 13 13 13 13 13 13 13 14 13 13 13 13 13 12 13 13 13
15 15 15 14 14 14 14 14 14 14 13 13 13 13 13 13 13 13 13 13 13 13 13 12 12 12 12 12 13 13 13 13 13 13 13 13 13 13 12 12 12 12 12
Wind_Speed
3 4 6 4 5 6 7 7 8 8 8 9 9 10 9 9 9 8 9 9 9 9 9 9 8 8 8 8 8 8 8 9 8 7 8 7 7 7 6 4 3 5 6
4 5 6 4 5 5 6 7 7 7 8 8 9 9 9 9 8 8 8 8 8 8 8 9 8 9 9 9 9 9 9 9 8 7 6 7 7 7 6 4 4 6 6
4 5 6 5 5 5 6 7 7 7 8 8 8 8 8 8 8 8 8 8 8 8 8 8 9 9 9 9 9 9 9 8 8 5 3 5 7 7 6 5 5 6 5
5 5 6 6 4 5 5 6 6 7 7 7 7 7 8 8 8 8 8 8 8 8 8 8 8 9 9 9 9 9 8 8 6 2 3 5 6 8 6 6 5 5 5
5 6 7 5 5 5 6 6 6 7 7 7 6 7 7 7 8 8 8 8 8 8 9 9 9 9 9 9 9 8 8 7 5 3 6 6 6 8 7 6 6 5 5
5 6 7 5 5 6 6 6 6 6 6 6 6 6 7 7 7 8 8 8 8 8 9 9 9 9 9 8 8 8 7 4 3 5 5 6 6 7 7 6 6 6 5
6 6 7 6 6 6 6 7 7 6 7 7 7 7 7 7 7 7 7 7 7 8 8 9 9 9 9 8 8 8 7 4 5 5 5 6 7 7 7 6 6 6 6
6 6 7 7 6 7 7 7 7 7 7 8 8 7 7 7 7 7 7 7 7 7 8 8 9 9 9 9 9 8 6 4 5 6 6 7 8 7 7 7 7 7 7
6 5 5 6 7 7 7 7 8 8 8 8 8 8 8 8 8 7 7 7 7 7 8 8 8 9 9 8 8 8 7 5 5 5 6 6 8 7 7 7 8 8 8
5 4 4 5 5 5 6 8 7 8 8 8 8 8 7 7 7 7 7 8 7 7 8 8 8 9 9 8 7 6 4 2 5 5 5 7 9 8 7 8 8 8 8
4 3 4 4 4 4 5 6 6 6 6 5 7 6 3 5 6 6 9 8 7 8 8 8 8 7 7 8 7 4 1 4 6 6 7 9 8 8 7 7 8 8 8
4 3 3 3 3 4 4 4 4 4 5 4 5 5 5 5 6 6 8 7 7 7 7 7 6 4 2 5 5 2 3 5 5 6 8 10 9 8 7 7 8 8 8
3 3 3 2 3 3 3 3 3 3 3 4 5 5 4 4 4 4 4 4 5 4 5 5 4 4 4 4 4 4 5 5 5 6 9 11 9 9 8 8 8 8 8
3 3 2 2 2 2 3 3 2 2 2 3 3 4 4 3 3 4 3 4 3 4 4 4 3 4 5 5 5 5 6 5 5 6 9 11 10 9 9 8 8 8 8
2 2 2 1 1 2 2 2 2 2 2 3 3 3 3 3 3 3 3 3 4 4 3 3 4 4 4 5 5 5 5 6 6 6 7 12 11 11 9 8 8 7 8
2 2 2 1 1 1 2 2 2 2 2 2 3 3 3 3 3 3 3 3 3 3 3 3 4 3 3 4 4 5 5 5 6 5 5 8 11 11 10 9 9 8 8
1 1 2 1 1 1 1 2 2 2 2 2 2 2 3 3 3 3 2 3 3 3 4 3 4 3 3 4 4 4 4 5 4 5 5 5 6 9 10 9 9 8 8
1 1 2 2 1 1 1 1 1 2 2 2 2 2 2 2 3 2 2 2 3 3 3 2 2 3 3 3 3 3 3 4 4 5 4 5 5 5 8 9 9 8 8
1 1 2 2 2 2 1 2 1 2 2 2 2 2 1 2 2 2 2 2 2 2 2 2 2 2 3 3 3 3 3 3 3 4 4 5 5 4 5 8 9 9 8
1 1 1 2 2 2 2 2 2 2 2 2 1 1 2 1 2 2 2 2 2 2 2 2 2 2 2 2 3 3 3 3 3 3 3 4 4 4 4 4 5 8 9
2 1 1 2 2 2 2 2 2 1 1 1 1 1 1 1 1 2 1 2 1 1 2 2 2 2 2 2 2 2 3 3 3 3 3 3 4 4 4 4 3 4 5
1 1 1 1 2 3 2 2 2 2 1 1 1 1 1 1 1 1 1 2 1 1 2 2 2 1 1 1 1 1 2 2 2 3 2 3 3 3 4 4 4 4 5
1 1 0 1 2 2 3 2 2 2 1 1 1 1 1 0 1 1 1 1 1 1 1 1 2 2 2 1 1 1 1 1 1 2 2 2 2 3 3 4 4 5 5
1 1 1 1 2 2 3 3 3 2 1 1 1 0 1 0 0 0 1 1 1 1 1 2 2 2 2 1 1 1 1 0 1 1 2 2 2 3 3 3 3 4 4
2 2 1 1 2 2 2 2 2 2 1 0 1 1 1 1 0 0 1 1 2 2 2 2 2 2 2 2 1 1 0 1 2 1 1 1 1 2 2 2 2 3 4
2 2 2 2 2 2 2 2 2 2 1 1 0 0 0 0 1 1 2 2 2 2 2 2 2 3 2 2 2 2 1 1 2 1 1 1 1 1 1 1 1 2 3
Wind_Direction
55 71 81 75 69 73 78 80 81 81 79 78 78 77 77 78 77 74 72 76 76 74 74 75 82 85 84 84 87 91 95 98 98 97 95 92 91 95 96 106 134 113 107
67 80 92 84 79 82 80 78 82 80 80 81 79 77 76 76 75 73 72 73 74 74 73 74 80 84 85 84 86 89 87 90 93 94 99 103 94 88 89 84 66 81 93
83 86 102 90 81 83 84 81 79 76 77 84 80 78 77 75 73 73 73 73 73 74 76 77 79 79 80 80 82 84 84 85 87 94 110 103 98 88 84 85 83 85 88
87 86 85 85 84 85 88 87 81 80 77 80 81 79 81 78 72 73 75 74 75 75 77 78 78 79 79 78 79 81 81 79 79 102 94 80 85 85 81 82 85 86 81
90 86 85 80 83 84 85 87 84 79 77 76 76 77 80 79 75 74 73 73 73 77 78 78 77 78 78 78 79 80 80 78 77 67 71 74 75 79 76 75 79 79 79
95 91 89 78 78 80 81 83 83 80 77 75 73 74 77 78 78 78 75 73 72 77 78 76 75 75 76 79 82 81 77 72 85 73 73 76 79 79 73 69 73 75 76
95 88 91 82 78 80 80 79 77 77 74 73 71 71 75 77 80 81 78 77 76 79 79 76 75 76 74 75 82 81 75 49 68 73 72 72 73 74 70 69 72 72 75
94 89 94 94 81 82 81 77 76 75 72 70 67 68 72 75 76 77 76 75 77 80 82 78 77 77 76 76 79 78 66 20 79 70 68 69 71 68 66 68 70 74 73
91 88 87 98 103 96 83 73 72 70 67 65 66 66 68 70 72 75 73 74 80 83 82 79 81 78 76 75 76 74 64 30 58 66 67 68 71 68 67 70 72 74 73
94 87 83 82 87 95 96 82 72 69 66 68 69 69 75 86 85 79 76 72 79 83 84 81 81 78 74 71 73 75 70 64 61 61 61 72 71 68 68 71 72 72 72
96 89 86 85 82 83 85 95 91 86 75 81 87 85 86 78 78 83 67 70 76 82 84 83 81 79 81 81 74 71 74 73 68 56 56 66 68 67 68 70 72 73 73
106 93 85 83 81 86 82 91 84 83 81 69 68 69 66 63 66 71 84 77 76 84 91 86 88 104 102 93 98 109 78 70 67 66 64 63 65 67 70 71 73 76 73
105 97 88 83 80 83 88 80 77 75 78 76 68 72 69 71 78 73 85 96 91 99 96 104 113 84 79 72 70 74 64 61 63 64 63 60 60 63 67 69 71 72 71
109 100 93 79 85 78 79 81 80 80 76 74 71 69 68 65 61 69 69 70 77 78 76 84 90 86 80 80 78 76 75 68 66 65 63 58 54 56 61 64 69 73 73
127 127 120 113 93 87 86 84 87 75 64 79 72 73 71 68 69 79 85 79 77 80 88 87 90 87 81 76 72 69 68 65 68 68 70 63 53 52 55 60 66 73 76
153 148 136 140 119 116 118 114 87 76 80 74 81 77 75 73 72 76 81 79 77 79 79 85 86 91 87 84 79 73 67 63 64 68 70 75 67 55 53 56 61 66 75
163 159 144 144 146 147 117 99 88 84 85 82 85 86 76 70 76 77 77 81 82 88 89 84 85 85 90 90 82 70 66 60 61 66 66 61 74 72 60 57 59 63 67
144 148 144 148 166 144 123 122 106 96 85 89 94 88 79 80 76 79 81 86 88 94 99 94 89 90 84 80 78 71 65 66 58 57 62 61 52 61 72 65 61 63 67
131 154 157 152 155 142 133 132 114 105 95 85 93 94 85 75 85 99 89 96 102 100 97 99 89 83 86 77 71 66 60 59 56 54 55 54 56 51 65 86 76 64 66
148 158 155 150 166 149 155 149 131 119 107 94 93 93 90 87 93 107 120 123 118 121 110 106 101 84 82 81 76 70 66 69 59 51 46 49 49 50 53 63 81 81 72
138 136 138 166 172 167 167 164 153 145 138 121 96 80 105 110 108 115 134 129 132 137 140 133 128 116 108 100 109 114 102 80 72 63 53 50 55 50 55 56 60 70 88
101 119 127 163 172 172 173 166 160 149 153 111 102 114 130 123 119 123 154 150 157 153 157 152 158 166 148 173 206 199 163 149 97 67 64 60 52 58 54 57 67 72 68
47 16 143 147 157 161 157 150 148 140 142 134 128 100 85 68 128 162 161 162 162 182 177 186 192 203 200 202 270 272 232 176 127 115 79 70 59 58 58 51 61 72 80
55 27 28 139 149 157 163 170 169 163 172 186 195 161 139 114 32 330 186 194 201 197 196 208 206 231 228 215 205 309 319 8 222 166 143 95 68 58 51 46 47 62 72
77 67 62 100 121 139 160 163 185 177 165 149 158 140 115 142 155 176 228 223 227 215 210 211 219 229 229 239 221 200 223 227 248 222 171 141 110 77 61 49 50 56 63
85 83 75 87 108 118 151 167 183 185 167 151 164 99 16 209 188 192 233 225 230 225 214 212 219 222 227 233 235 225 224 224 230 229 207 200 155 87 87 66 51 61 64
Height
1531 1530 1528 1527 1527 1527 1526 1526 1526 1525 1525 1525 1524 1524 1523 1523 1523 1523 1523 1523 1522 1522 1522 1522 1522 1522 1522 1522 1521 1521 1521 1521 1521 1521 1522 1522 1522 1522 1522 1522 1523 1523 1522
1532 1531 1529 1529 1528 1528 1528 1527 1527 1527 1526 1526 1526 1525 1525 1525 1524 1524 1524 1524 1524 1524 1523 1523 1523 1523 1523 1523 1523 1523 1523 1523 1523 1523 1523 1523 1523 1523 1523 1523 1523 1523 1523
1533 1532 1531 1530 1530 1529 1529 1529 1528 1528 1528 1527 1527 1527 1526 1526 1526 1525 1525 1525 1525 1525 1525 1525 1525 1524 1524 1524 1524 1524 1524 1524 1524 1524 1524 1525 1524 1523 1523 1523 1523 1523 1523
1534 1533 1532 1531 1531 1531 1531 1530 1530 1529 1529 1529 1528 1528 1528 1527 1527 1527 1526 1526 1526 1526 1526 1526 1526 1526 1525 1525 1525 1525 1525 1525 1525 1525 1526 1526 1525 1524 1524 1524 1524 1524 1524
1535 1534 1533 1532 1532 1532 1532 1531 1531 1531 1530 1530 1529 1529 1529 1528 1528 1528 1528 1527 1527 1527 1527 1527 1527 1527 1527 1526 1526 1526 1526 1526 1526 1526 1526 1526 1525 1525 1525 1524 1524 1524 1524
1536 1535 1534 1534 1533 1533 1533 1533 1532 1532 1531 1531 1530 1530 1530 1529 1529 1529 1529 1528 1528 1528 1528 1528 1528 1528 1528 1528 1528 1527 1527 1527 1528 1527 1527 1527 1526 1526 1525 1525 1525 1524 1524
1537 1536 1536 1535 1535 1534 1534 1534 1533 1533 1533 1532 1532 1531 1531 1531 1530 1530 1530 1530 1530 1529 1529 1529 1529 1529 1529 1529 1529 1528 1528 1528 1529 1528 1528 1528 1527 1526 1526 1526 1525 1525 1525
1537 1537 1537 1536 1536 1535 1535 1535 1534 1534 1533 1533 1533 1532 1532 1532 1531 1531 1531 1531 1531 1531 1531 1531 1530 1530 1530 1530 1530 1530 1530 1530 1530 1530 1529 1528 1528 1527 1527 1527 1526 1525 1525
1539 1538 1538 1538 1537 1537 1536 1536 1536 1535 1535 1534 1534 1533 1533 1533 1532 1532 1532 1532 1532 1532 1532 1531 1531 1531 1531 1531 1531 1531 1531 1530 1531 1531 1531 1529 1528 1528 1528 1527 1527 1526 1526
1540 1540 1539 1539 1539 1539 1538 1537 1536 1536 1536 1535 1535 1534 1534 1534 1533 1533 1533 1533 1533 1533 1533 1532 1532 1532 1532 1532 1532 1532 1532 1532 1533 1532 1532 1530 1529 1529 1529 1528 1528 1527 1526
1540 1541 1540 1540 1540 1540 1539 1538 1537 1537 1537 1536 1536 1535 1535 1536 1535 1535 1534 1533 1533 1533 1533 1533 1533 1533 1534 1534 1534 1534 1534 1535 1534 1533 1532 1531 1531 1530 1530 1529 1529 1528 1527
1541 1541 1541 1541 1541 1541 1540 1539 1539 1538 1538 1538 1537 1537 1537 1536 1536 1535 1534 1534 1534 1534 1534 1534 1534 1535 1535 1536 1535 1535 1536 1536 1535 1535 1534 1532 1532 1531 1531 1530 1530 1529 1528
1542 1542 1541 1541 1541 1541 1540 1540 1539 1539 1538 1538 1538 1537 1537 1537 1537 1536 1536 1536 1535 1535 1536 1535 1536 1536 1537 1537 1537 1537 1537 1537 1537 1536 1535 1533 1533 1532 1532 1531 1531 1530 1529
1542 1542 1542 1541 1541 1541 1540 1540 1540 1540 1539 1539 1539 1538 1538 1538 1537 1537 1537 1536 1536 1536 1536 1537 1537 1537 1538 1538 1538 1538 1538 1537 1537 1537 1536 1535 1534 1534 1533 1532 1532 1531 1530
1542 1542 1541 1541 1541 1541 1540 1540 1540 1540 1540 1540 1539 1539 1539 1539 1538 1538 1537 1537 1537 1537 1537 1538 1538 1538 1538 1539 1539 1539 1539 1538 1538 1538 1537 1536 1535 1535 1534 1533 1533 1532 1531
1541 1541 1541 1541 1541 1541 1541 1541 1540 1540 1540 1540 1539 1539 1539 1539 1539 1539 1538 1538 1538 1538 1538 1538 1539 1539 1539 1539 1539 1539 1539 1539 1539 1538 1538 1537 1536 1536 1535 1534 1534 1533 1532
1541 1541 1540 1540 1541 1541 1541 1541 1540 1540 1540 1540 1540 1540 1540 1539 1539 1539 1539 1539 1539 1539 1539 1539 1539 1539 1539 1540 1540 1540 1540 1540 1540 1539 1539 1538 1538 1537 1536 1535 1535 1534 1534
1540 1540 1540 1539 1540 1540 1540 1540 1540 1540 1540 1540 1540 1540 1540 1540 1540 1539 1539 1539 1539 1539 1539 1539 1540 1540 1540 1540 1540 1540 1541 1540 1540 1540 1540 1539 1539 1538 1537 1536 1536 1535 1535
1539 1539 1539 1539 1539 1539 1540 1540 1540 1540 1540 1540 1540 1540 1540 1540 1540 1539 1539 1539 1539 1539 1540 1540 1540 1540 1540 1540 1540 1541 1541 1541 1540 1540 1540 1540 1539 1538 1538 1537 1537 1536 1536
1537 1538 1538 1538 1538 1538 1539 1539 1539 1540 1540 1540 1540 1540 1540 1540 1540 1539 1539 1539 1539 1539 1540 1540 1540 1540 1540 1540 1540 1541 1541 1541 1541 1540 1540 1540 1540 1539 1539 1538 1538 1537 1537
1536 1536 1537 1538 1538 1538 1538 1539 1539 1539 1539 1540 1540 1540 1540 1540 1540 1539 1539 1539 1539 1539 1540 1540 1540 1540 1540 1541 1541 1541 1541 1541 1541 1540 1540 1540 1540 1539 1539 1538 1539 1538 1538
1535 1536 1536 1536 1537 1537 1537 1538 1538 1538 1539 1539 1539 1539 1539 1539 1539 1539 1539 1539 1539 1539 1539 1539 1539 1540 1540 1541 1541 1541 1542 1543 1541 1540 1540 1540 1540 1540 1539 1539 1539 1539 1539
1534 1535 1535 1535 1536 1536 1536 1537 1537 1537 1538 1538 1538 1538 1539 1539 1539 1539 1539 1539 1538 1539 1539 1539 1539 1539 1540 1540 1541 1542 1541 1541 1541 1541 1540 1540 1540 1539 1539 1539 1539 1539 1539
1533 1533 1534 1534 1535 1535 1535 1536 1536 1536 1537 1537 1538 1538 1538 1538 1538 1538 1538 1538 1538 1538 1538 1538 1538 1539 1539 1540 1540 1539 1541 1541 1541 1541 1541 1540 1539 1539 1539 1539 1539 1539 1539
1533 1532 1533 1533 1534 1534 1534 1535 1535 1536 1536 1536 1536 1537 1537 1537 1537 1537 1537 1537 1537 1537 1537 1537 1537 1538 1538 1539 1539 1539 1539 1539 1540 1540 1540 1540 1540 1539 1539 1539 1539 1539 1539
1532 1532 1532 1532 1532 1532 1533 1534 1534 1534 1535 1535 1535 1535 1535 1535 1535 1536 1536 1536 1536 1536 1536 1536 1536 1537 1537 1537 1538 1539 1539 1539 1539 1539 1539 1539 1539 1539 1539 1538 1538 1538 1538